Atlantic, IA

1:52 AM CST on February 22, 2017 (GMT -0600)
Atlantic Municipal

Weather History for KAIO - April, 2014

Change the Weather History Date:

Saturday, April 26, 2014

  Actual Average Record
Temperature  
Mean Temperature 60 °F -  
Max Temperature 77 °F 64 °F 89 °F (2001)
Min Temperature 42 °F 43 °F 32 °F (2008)
Degree Days  
Heating Degree Days 6    
Growing Degree Days 10 (Base 50)    
Moisture  
Dew Point 46 °F    
Average Humidity 57    
Maximum Humidity 93    
Minimum Humidity 34    
Precipitation  
Precipitation 0.00 in - - ()
Sea Level Pressure  
Sea Level Pressure 29.70 in    
Wind  
Wind Speed 9 mph (East)    
Max Wind Speed 23 mph    
Max Gust Speed 33 mph    
Visibility 10 miles    
Events      
Averages and records for this station are not official NWS values.
T = Trace of Precipitation, MM = Missing Value Source: NWS Daily Summary

Daily Weather History Graph

Daily Weather History Graph

Search for Another Location

Airport or City:

Trip Planner

Search our weather history database for the weather conditions in past years. The results will help you decide how hot, cold, wet, or windy it might be!

Date:

Astronomy

Apr. 26, 2014 Rise Set
Actual Time 6:24 AM CDT 8:12 PM CDT
Civil Twilight 5:54 AM CDT 8:42 PM CDT
Nautical Twilight 5:18 AM CDT 9:18 PM CDT
Astronomical Twilight 4:39 AM CDT 9:57 PM CDT
Moon 4:51 AM CDT (4/26) 5:40 PM CDT (4/26)
Length of Visible Light 14h 47m
Length of Day
13h 48m
Waning Crescent, 8% of the Moon is Illuminated
Apr 26
Waning Crescent
Apr 29
New
May 6
First Quarter
May 14
Full
May 21
Last Quarter

Hourly Weather History & Observations

Time (CDT) Temp. Windchill Dew Point Humidity Pressure Visibility Wind Dir Wind Speed Gust Speed Precip Events Conditions
12:15 AM 50.0 °F - 42.8 °F 76% 29.79 in 10.0 mi NNE 4.6 mph - N/A   Clear
12:35 AM 51.8 °F - 42.8 °F 71% 29.79 in 10.0 mi NNE 6.9 mph - N/A   Clear
12:55 AM 50.0 °F - 42.8 °F 76% 29.79 in 10.0 mi NNE 4.6 mph - N/A   Clear
1:15 AM 48.2 °F - 42.8 °F 82% 29.79 in 10.0 mi NNE 4.6 mph - N/A   Clear
1:35 AM 48.2 °F - 42.8 °F 82% 29.79 in 10.0 mi NNE 4.6 mph - N/A   Clear
1:55 AM 48.2 °F - 42.8 °F 82% 29.78 in 10.0 mi NNE 5.8 mph - N/A   Clear
2:15 AM 48.2 °F - 41.0 °F 76% 29.78 in 10.0 mi Calm Calm - N/A   Partly Cloudy
2:35 AM 48.2 °F - 41.0 °F 76% 29.77 in 10.0 mi Calm Calm - N/A   Scattered Clouds
2:55 AM 46.4 °F 44.3 °F 41.0 °F 81% 29.76 in 10.0 mi NNE 4.6 mph - N/A   Scattered Clouds
3:15 AM 44.6 °F 40.7 °F 41.0 °F 87% 29.77 in 10.0 mi NNE 6.9 mph - N/A   Scattered Clouds
3:35 AM 44.6 °F 41.4 °F 41.0 °F 87% 29.77 in 10.0 mi NNE 5.8 mph - N/A   Clear
3:55 AM 46.4 °F 44.3 °F 41.0 °F 81% 29.77 in 10.0 mi NNE 4.6 mph - N/A   Clear
4:15 AM 44.6 °F 42.2 °F 41.0 °F 87% 29.77 in 10.0 mi North 4.6 mph - N/A   Scattered Clouds
4:35 AM 46.4 °F 43.5 °F 41.0 °F 81% 29.77 in 10.0 mi NNE 5.8 mph - N/A   Scattered Clouds
4:55 AM 44.6 °F 41.4 °F 41.0 °F 87% 29.77 in 10.0 mi NNE 5.8 mph - N/A   Scattered Clouds
5:15 AM 44.6 °F 41.4 °F 41.0 °F 87% 29.77 in 10.0 mi NNE 5.8 mph - N/A   Mostly Cloudy
5:35 AM 44.6 °F 41.4 °F 41.0 °F 87% 29.78 in 10.0 mi NNE 5.8 mph - N/A   Mostly Cloudy
5:55 AM 42.8 °F 40.1 °F 41.0 °F 93% 29.78 in 10.0 mi NNE 4.6 mph - N/A   Mostly Cloudy
6:15 AM 44.6 °F 42.2 °F 41.0 °F 87% 29.78 in 10.0 mi ENE 4.6 mph - N/A   Partly Cloudy
6:35 AM 44.6 °F 42.2 °F 41.0 °F 87% 29.78 in 10.0 mi NE 4.6 mph - N/A   Clear
6:55 AM 46.4 °F 42.4 °F 41.0 °F 81% 29.78 in 10.0 mi NE 8.1 mph - N/A   Clear
7:15 AM 46.4 °F 42.9 °F 42.8 °F 87% 29.78 in 10.0 mi NNE 6.9 mph - N/A   Clear
7:35 AM 48.2 °F - 42.8 °F 82% 29.78 in 10.0 mi NE 5.8 mph - N/A   Clear
7:55 AM 50.0 °F - 44.6 °F 82% 29.79 in 10.0 mi NE 6.9 mph - N/A   Clear
8:15 AM 53.6 °F - 46.4 °F 77% 29.78 in 10.0 mi NE 4.6 mph - N/A   Clear
8:35 AM 57.2 °F - 46.4 °F 67% 29.78 in 10.0 mi East 6.9 mph - N/A   Clear
9:15 AM 62.6 °F - 46.4 °F 55% 29.76 in 10.0 mi East 12.7 mph 19.6 mph N/A   Clear
9:35 AM 64.4 °F - 44.6 °F 49% 29.77 in 10.0 mi East 12.7 mph 18.4 mph N/A   Clear
9:55 AM 66.2 °F - 46.4 °F 49% 29.76 in 10.0 mi ESE 11.5 mph - N/A   Clear
10:15 AM 66.2 °F - 46.4 °F 49% 29.76 in 10.0 mi ESE 11.5 mph - N/A   Clear
10:35 AM 66.2 °F - 46.4 °F 49% 29.76 in 10.0 mi ESE 9.2 mph 16.1 mph N/A   Clear
10:55 AM 68.0 °F - 46.4 °F 46% 29.75 in 10.0 mi ESE 11.5 mph 17.3 mph N/A   Clear
11:15 AM 69.8 °F - 46.4 °F 43% 29.75 in 10.0 mi ESE 9.2 mph 18.4 mph N/A   Clear
11:35 AM 71.6 °F - 46.4 °F 41% 29.74 in 10.0 mi SE 11.5 mph 19.6 mph N/A   Clear
11:55 AM 71.6 °F - 46.4 °F 41% 29.73 in 10.0 mi ESE 17.3 mph 25.3 mph N/A   Clear
12:15 PM 73.4 °F - 46.4 °F 38% 29.72 in 10.0 mi SE 11.5 mph 19.6 mph N/A   Clear
12:35 PM 73.4 °F - 46.4 °F 38% 29.71 in 10.0 mi SSE 15.0 mph 23.0 mph N/A   Clear
12:55 PM 75.2 °F - 46.4 °F 36% 29.69 in 10.0 mi SE 19.6 mph - N/A   Clear
1:15 PM 75.2 °F - 48.2 °F 38% 29.69 in 10.0 mi SE 11.5 mph 24.2 mph N/A   Clear
1:35 PM 75.2 °F - 48.2 °F 38% 29.68 in 10.0 mi SE 13.8 mph 26.5 mph N/A   Scattered Clouds
1:55 PM 75.2 °F - 50.0 °F 41% 29.67 in 9.0 mi SE 15.0 mph 23.0 mph N/A   Overcast
2:15 PM 77.0 °F - 50.0 °F 39% 29.66 in 10.0 mi SE 19.6 mph 31.1 mph N/A   Overcast
2:35 PM 77.0 °F - 48.2 °F 36% 29.66 in 10.0 mi SE 20.7 mph 31.1 mph N/A   Overcast
2:55 PM 77.0 °F - 46.4 °F 34% 29.66 in 10.0 mi SSE 17.3 mph 27.6 mph N/A   Overcast
3:15 PM 77.0 °F - 48.2 °F 36% 29.65 in 10.0 mi SE 18.4 mph 28.8 mph N/A   Overcast
3:35 PM 75.2 °F - 48.2 °F 38% 29.64 in 10.0 mi SE 20.7 mph 28.8 mph N/A   Overcast
3:55 PM 75.2 °F - 48.2 °F 38% 29.64 in 10.0 mi SE 20.7 mph - N/A   Overcast
4:15 PM 75.2 °F - 48.2 °F 38% 29.63 in 10.0 mi SE 20.7 mph 31.1 mph N/A   Mostly Cloudy
4:35 PM 77.0 °F - 48.2 °F 36% 29.62 in 10.0 mi SE 23.0 mph 28.8 mph N/A   Partly Cloudy
4:55 PM 77.0 °F - 48.2 °F 36% 29.61 in 10.0 mi ESE 20.7 mph 27.6 mph N/A   Scattered Clouds
5:15 PM 77.0 °F - 48.2 °F 36% 29.61 in 10.0 mi SSE 19.6 mph 28.8 mph N/A   Mostly Cloudy
5:35 PM 77.0 °F - 48.2 °F 36% 29.61 in 10.0 mi SE 18.4 mph 26.5 mph N/A   Overcast
5:55 PM 77.0 °F - 50.0 °F 39% 29.60 in 10.0 mi SE 18.4 mph 27.6 mph N/A   Overcast
6:15 PM 75.2 °F - 48.2 °F 38% 29.60 in 10.0 mi SE 23.0 mph 32.2 mph N/A   Scattered Clouds
6:35 PM 75.2 °F - 46.4 °F 36% 29.59 in 10.0 mi SE 21.9 mph 33.4 mph N/A   Clear
6:55 PM 73.4 °F - 48.2 °F 41% 29.59 in 10.0 mi SE 18.4 mph 28.8 mph N/A   Clear
7:15 PM 73.4 °F - 50.0 °F 44% 29.58 in 10.0 mi SE 11.5 mph 24.2 mph N/A   Clear
7:35 PM 73.4 °F - 48.2 °F 41% 29.59 in 10.0 mi SE 17.3 mph 27.6 mph N/A   Scattered Clouds
7:55 PM 71.6 °F - 48.2 °F 43% 29.60 in 10.0 mi SE 17.3 mph 26.5 mph N/A   Overcast
8:15 PM 71.6 °F - 48.2 °F 43% 29.60 in 10.0 mi SE 13.8 mph 23.0 mph N/A   Overcast
8:35 PM 71.6 °F - 50.0 °F 46% 29.60 in 10.0 mi ESE 12.7 mph 26.5 mph N/A   Overcast
9:15 PM 69.8 °F - 48.2 °F 46% 29.60 in 10.0 mi ESE 17.3 mph 24.2 mph N/A   Overcast
9:35 PM 68.0 °F - 48.2 °F 49% 29.61 in 10.0 mi ESE 15.0 mph 21.9 mph N/A   Overcast
9:55 PM 68.0 °F - 48.2 °F 49% 29.62 in 10.0 mi ESE 18.4 mph - N/A   Overcast
10:15 PM 68.0 °F - 48.2 °F 49% 29.62 in 10.0 mi ESE 15.0 mph 25.3 mph N/A   Overcast
10:35 PM 68.0 °F - 48.2 °F 49% 29.61 in 10.0 mi ESE 12.7 mph 25.3 mph N/A   Overcast
10:55 PM 66.2 °F - 48.2 °F 52% 29.61 in 10.0 mi ESE 17.3 mph 24.2 mph N/A   Overcast
11:15 PM 66.2 °F - 48.2 °F 52% 29.60 in 10.0 mi ESE 17.3 mph 23.0 mph N/A   Overcast
11:35 PM 66.2 °F - 48.2 °F 52% 29.60 in 10.0 mi ESE 19.6 mph 29.9 mph N/A   Overcast
11:55 PM 66.2 °F - 48.2 °F 52% 29.59 in 10.0 mi ESE 19.6 mph 25.3 mph N/A   Overcast